Location: Fort Wayne
(41.1310°N, 85.1290°W)
Time: 02:49:10
(UTC-04:00)

Helios 1B - Visible Passes

Search period start: 20 August 2014 00:00
Search period end: 30 August 2014 00:00
Orbit: 627 x 629 km, 98.2° (Epoch: 19 August)

Date Brightness Start Highest point End Pass type
(mag) Time Alt. Az. Time Alt. Az. Time Alt. Az.
20 Aug 7.0 22:30:42 10° NE 22:30:42 10° NE 22:30:55 10° NE visible
21 Aug 6.4 00:08:02 29° NNW 00:08:02 29° NNW 00:10:14 10° NNW visible
21 Aug 6.7 22:50:46 15° NE 22:50:46 15° NE 22:52:28 10° NNE visible
22 Aug 6.8 00:28:06 23° NW 00:28:06 23° NW 00:29:51 10° NNW visible
22 Aug 6.5 23:10:49 21° NE 23:10:49 21° NE 23:12:53 10° NNE visible
23 Aug 7.3 00:48:09 16° NW 00:48:09 16° NW 00:49:15 10° NW visible
23 Aug 6.4 23:30:53 25° NNE 23:30:53 25° NNE 23:32:59 10° N visible
24 Aug 7.6 01:08:13 11° NW 01:08:13 11° NW 01:08:20 10° NW visible
24 Aug 6.5 23:50:56 26° N 23:50:56 26° N 23:52:54 10° N visible
25 Aug 7.1 22:33:39 10° NE 22:33:39 10° NE 22:33:43 10° NE visible
26 Aug 6.8 00:10:59 23° NNW 00:10:59 23° NNW 00:12:39 10° NNW visible
26 Aug 6.9 22:53:42 14° NE 22:53:42 14° NE 22:54:58 10° NNE visible
27 Aug 7.2 00:31:03 18° NNW 00:31:03 18° NNW 00:32:15 10° NNW visible
27 Aug 6.7 23:13:46 18° NNE 23:13:46 18° NNE 23:15:20 10° NNE visible
28 Aug 7.5 00:51:06 13° NW 00:51:06 13° NW 00:51:37 10° NW visible
28 Aug 6.7 23:33:49 21° NNE 23:33:49 21° NNE 23:35:25 10° N visible
29 Aug 6.9 23:53:52 21° N 23:53:52 21° N 23:55:19 10° N visible
